Location: Góry Miechowskie
(50.3599°N, 20.1803°E)
Time: 03:08:07
(UTC+00:00)

SR - Pass Details

Date: 15 September 2024
Orbit: 578 x 855 km, 66.7° (Epoch: 04 October)

Event Time Altitude Azimuth Distance (km) Brightness Sun altitude
Rises 20:17:26 0° 321° (NW) 2,913 ? -29.5°
Reaches altitude 10° 20:19:38 10° 319° (NW) 2,037 ? -29.7°
Enters shadow 20:22:49 44° 305° (NW) 922 ? -30.0°
